NOAA 16 DEB, 41347

Orbit data source: Space-Track

NOAA 16 DEB, 41347 is space debris in SSO originally from a launch on Thu, 21 Sep 2000 UTC launched from the Air Force Western Test Range (AFWTR). Debris objects in space refer to the collection of defunct objects orbiting the Earth. Examples of debris include non-operational satellites, rocket bodies, and fragments generated from explosions, collisions, or faulty payload assembly.

Loading next visibility...
Identifier
41347, 2000-055HQ
Orbit
SSO
Country
Flag of USUS
Related business
Manufacturer
Unknown
Mission
Spacecraft
Bus & Motor
Unknown
Mass
Unknown
Launch date (UTC)
2000-09-21 (26 years ago)
Launch vehicle
Unknown
Launch site
Air Force Western Test Range (AFWTR)
Object type
Payload
Rocket body
Debris
Shape & HBR
Unknown shape, 0.1 m
Radar Cross Section
Small (<0.1 m²)

Expand to show TLE details & history
Last TLE update: 8 hours ago

TLE from 8 hours ago
0 NOAA 16 DEB
1 41347U 00055HQ  26124.14951176  .00005722  00000-0  20249-2 0  9993
2 41347  98.6990 201.4880 0021659 130.4209 229.8870 14.34835407530910
Epoch: 2026-05-04T03:35Z
TLE epoch observation values (Epoch: 2026-05-04T03:35:17.816Z)
Latitude
0.00005°
Longitude
-74.37909°
Altitude
788.553 km
Speed
7.454 km/s
True Right ascension
13h 25m 57s
True Declination
0° 00' 00"
Sunlit
Object was in full shadow at epoch
Visualization orbit readout
Latitude
Unknown
Longitude
Unknown
Altitude
Unknown
Speed
Unknown
Apparent Right ascension
Unknown
Apparent Declination
Unknown
Sunlit
N/A
Visualization observer readout
Local Sidereal Time
19:35:53
Azimuth
Unknown
Elevation
Unknown
Doppler factor
Unknown
Orbital elements
Apogee altitude
788.24 km
Perigee altitude
757.264 km
Semi-major axis
7,150.889 km
Eccentricity
0.00217
Inclination
98.699°
RAAN
201.488°
Arg. of periapsis
130.4209°
True anomaly
229.69752°
Mean anomaly
229.887°
Eccentric anomaly
229.79223°
Mean motion
3.58925 °/min
Orbital period
100.3 mins
BSTAR
0.0020249
Loading maneuver chart data...
Computing Atmospheric mass density...
Loading historical data...
Loading historical data...
Loading historical data...
Loading historical data...
Loading historical data...
Loading historical data...
Loading historical data...

Documentation

Showing up to 5 results
|